ProjectID,Date,Electric Generation,Electric Utility Import,Facility Electric Load
,YYYY-MM-DD,kW,kW,kW
25,2006-07-24,22.995125,0.0,22.995125
25,2006-07-25,1229.4058333333335,0.0,1229.4058333333335
25,2006-07-26,1219.9978333333333,0.0,1219.9978333333333
25,2006-07-27,1196.9030416666667,0.0,1196.9030416666667
25,2006-07-28,1097.2680833333334,0.0,1097.2680833333334
25,2006-07-29,1110.9499166666667,0.0,1110.9499166666667
25,2006-07-30,1165.6936666666668,0.0,1165.6936666666668
25,2006-07-31,1086.5263333333335,0.0,1086.5263333333335
25,2006-08-01,1279.633,0.0,1279.633
25,2006-08-02,1325.006,0.0,1325.006
25,2006-08-03,1156.2489583333333,0.0,1156.2489583333333
25,2006-08-04,1106.3717083333333,0.0,1106.3717083333333
25,2006-08-05,1091.9222916666665,0.0,1091.9222916666665
25,2006-08-06,1107.9423749999999,0.0,1107.9423749999999
25,2006-08-07,1123.3240833333332,0.0,1123.3240833333332
25,2006-08-08,1101.22125,0.0,1101.22125
25,2006-08-09,1036.25025,0.0,1036.25025
25,2006-08-10,1075.7762083333334,0.0,1075.7762083333334
25,2006-08-11,1058.6464166666667,0.0,1058.6464166666667
25,2006-08-12,882.0726666666666,0.0,882.0726666666666
25,2006-08-13,974.0962916666667,0.0,974.0962916666667
25,2006-08-14,1039.906,0.0,1039.906
25,2006-08-15,1080.31725,0.0,1080.31725
25,2006-08-16,1066.5015833333334,0.0,1066.5015833333334
25,2006-08-17,1057.561125,0.0,1057.561125
25,2006-08-18,1086.714875,0.0,1086.714875
25,2006-08-19,1026.466875,0.0,1026.466875
25,2006-08-20,1052.8209166666668,0.0,1052.8209166666668
25,2006-08-21,1054.0398333333333,0.0,1054.0398333333333
25,2006-08-22,1026.0977916666668,0.0,1026.0977916666668
25,2006-08-23,1027.2330416666666,0.0,1027.2330416666666
25,2006-08-24,1103.3177083333333,0.0,1103.3177083333333
25,2006-08-25,1020.0535833333333,0.0,1020.0535833333333
25,2006-08-26,1007.3640416666667,0.0,1007.3640416666667
25,2006-08-27,1067.33725,0.0,1067.33725
25,2006-08-28,1110.9906250000001,0.0,1110.9906250000001
25,2006-08-29,984.7486666666667,0.0,984.7486666666667
25,2006-08-30,977.6870416666667,0.0,977.6870416666667
25,2006-08-31,935.6119583333334,0.0,935.6119583333334
25,2006-09-01,964.1109166666666,0.0,964.1109166666666
25,2006-09-02,817.198875,0.0,817.198875
25,2006-09-03,808.5561666666667,0.0,808.5561666666667
25,2006-09-04,851.7339583333334,0.0,851.7339583333334
25,2006-09-05,906.3108333333333,0.0,906.3108333333333
25,2006-09-06,993.2534166666666,0.0,993.2534166666666
25,2006-09-07,1028.7552083333333,0.0,1028.7552083333333
25,2006-09-08,1079.3524583333333,0.0,1079.3524583333333
25,2006-09-09,932.1754999999999,0.0,932.1754999999999
25,2006-09-10,743.4800416666667,0.0,743.4800416666667
25,2006-09-11,838.4961666666667,0.0,838.4961666666667
25,2006-09-12,834.7967916666666,0.0,834.7967916666666
25,2006-09-13,903.1334166666667,0.0,903.1334166666667
25,2006-09-14,905.9651250000001,0.0,905.9651250000001
25,2006-09-15,982.310125,0.0,982.310125
25,2006-09-16,982.4082083333333,0.0,982.4082083333333
25,2006-09-17,992.1875,0.0,992.1875
25,2006-09-18,1059.7878333333333,0.0,1059.7878333333333
25,2006-09-19,946.6,0.0,946.6
25,2006-09-20,781.9294583333334,0.0,781.9294583333334
25,2006-09-21,749.2475416666666,0.0,749.2475416666666
25,2006-09-22,905.1842916666666,0.0,905.1842916666666
25,2006-09-23,791.241875,0.0,791.241875
25,2006-09-24,971.199125,0.0,971.199125
25,2006-09-25,747.3826666666668,0.0,747.3826666666668
25,2006-09-26,807.7778750000001,0.0,807.7778750000001
25,2006-09-27,928.5599166666666,0.0,928.5599166666666
25,2006-09-28,746.9341250000001,0.0,746.9341250000001
25,2006-09-29,759.6547916666667,0.0,759.6547916666667
25,2006-09-30,727.1655000000001,0.0,727.1655000000001
25,2006-10-01,738.2271666666667,0.0,738.2271666666667
25,2006-10-02,765.4045833333333,0.0,765.4045833333333
25,2006-10-03,918.9187083333333,0.0,918.9187083333333
25,2006-10-04,829.04025,0.0,829.04025
25,2006-10-05,797.4742083333334,0.0,797.4742083333334
25,2006-10-06,806.240875,0.0,806.240875
25,2006-10-07,711.4105,0.0,711.4105
25,2006-10-08,866.1141250000001,0.0,866.1141250000001
25,2006-10-09,943.8268750000001,0.0,943.8268750000001
25,2006-10-10,806.9995416666667,0.0,806.9995416666667
25,2006-10-11,786.4809166666668,0.0,786.4809166666668
25,2006-10-12,703.5618333333333,0.0,703.5618333333333
25,2006-10-13,833.0706666666666,0.0,833.0706666666666
25,2006-10-14,766.16125,0.0,766.16125
25,2006-10-15,792.1166666666667,0.0,792.1166666666667
25,2006-10-16,780.2460833333333,0.0,780.2460833333333
25,2006-10-17,743.4510416666667,0.0,743.4510416666667
25,2006-10-18,734.5802083333333,0.0,734.5802083333333
25,2006-10-19,746.062125,0.0,746.062125
25,2006-10-20,763.1595000000001,0.0,763.1595000000001
25,2006-10-21,634.2491249999999,0.0,634.2491249999999
25,2006-10-22,763.386625,0.0,763.386625
25,2006-10-23,780.4298749999999,0.0,780.4298749999999
25,2006-10-24,784.4995,0.0,784.4995
25,2006-10-25,885.5305833333333,0.0,885.5305833333333
25,2006-10-26,930.7844583333334,0.0,930.7844583333334
25,2006-10-27,947.1929166666667,0.0,947.1929166666667
25,2006-10-28,843.131125,0.0,843.131125
25,2006-10-29,883.2076666666667,0.0,883.2076666666667
25,2006-10-30,824.893625,0.0,824.893625
25,2006-10-31,781.4339166666667,0.0,781.4339166666667
25,2006-11-01,773.04075,0.0,773.04075
25,2006-11-02,779.2542916666666,0.0,779.2542916666666
25,2006-11-03,772.3677916666667,0.0,772.3677916666667
25,2006-11-04,695.6005416666667,0.0,695.6005416666667
25,2006-11-05,768.8972083333333,0.0,768.8972083333333
25,2006-11-06,773.6145,0.0,773.6145
25,2006-11-07,779.3924999999999,0.0,779.3924999999999
25,2006-11-08,795.9927916666667,0.0,795.9927916666667
25,2006-11-09,792.9774166666666,0.0,792.9774166666666
25,2006-11-10,855.243125,0.0,855.243125
25,2006-11-11,640.0627916666666,0.0,640.0627916666666
25,2006-11-12,797.9221666666667,0.0,797.9221666666667
25,2006-11-13,873.7584166666667,0.0,873.7584166666667
25,2006-11-14,921.8685833333334,0.0,921.8685833333334
25,2006-11-15,932.3495416666666,,932.3495416666666
25,2006-11-16,895.0082916666667,0.0,895.0082916666667
25,2006-11-17,891.54175,0.0,891.54175
25,2006-11-18,842.69575,0.0,842.69575
25,2006-11-19,834.3000000000001,0.0,834.3000000000001
25,2006-11-20,850.7928333333333,0.0,850.7928333333333
25,2006-11-21,864.0588750000001,0.0,864.0588750000001
25,2006-11-22,847.9518333333334,0.0,847.9518333333334
25,2006-11-23,805.4445833333333,0.0,805.4445833333333
25,2006-11-24,828.9787916666668,0.0,828.9787916666668
25,2006-11-25,824.531625,0.0,824.531625
25,2006-11-26,815.3604583333334,0.0,815.3604583333334
25,2006-11-27,837.8561666666666,0.0,837.8561666666666
25,2006-11-28,831.5595416666666,0.0,831.5595416666666
25,2006-11-29,861.634,0.0,861.634
25,2006-11-30,875.3068750000001,0.0,875.3068750000001
25,2006-12-01,849.4665,0.0,849.4665
25,2006-12-02,747.2123333333334,0.0,747.2123333333334
25,2006-12-03,801.683625,0.0,801.683625
25,2006-12-04,817.875,0.0,817.875
25,2006-12-05,858.1467916666667,0.0,858.1467916666667
25,2006-12-06,872.4636666666667,0.0,872.4636666666667
25,2006-12-07,845.2054166666667,0.0,845.2054166666667
25,2006-12-08,862.4770416666667,0.0,862.4770416666667
25,2006-12-09,841.2853333333334,0.0,841.2853333333334
25,2006-12-10,850.66925,0.0,850.66925
25,2006-12-11,839.6289166666667,0.0,839.6289166666667
25,2006-12-12,827.8536250000001,0.0,827.8536250000001
25,2006-12-13,796.390375,0.0,796.390375
25,2006-12-14,820.5609166666667,0.0,820.5609166666667
25,2006-12-15,758.138,0.0,758.138
25,2006-12-16,785.04175,0.0,785.04175
25,2006-12-17,786.1097083333334,0.0,786.1097083333334
25,2006-12-18,820.8985833333332,0.0,820.8985833333332
25,2006-12-19,827.0042916666666,0.0,827.0042916666666
25,2006-12-20,842.3702499999999,0.0,842.3702499999999
25,2006-12-21,855.493875,0.0,855.493875
25,2006-12-22,862.2449166666667,0.0,862.2449166666667
25,2006-12-23,829.6785,0.0,829.6785
25,2006-12-24,728.223,0.0,728.223
25,2006-12-25,799.453625,0.0,799.453625
25,2006-12-26,836.6631666666667,0.0,836.6631666666667
25,2006-12-27,815.3871666666668,0.0,815.3871666666668
25,2006-12-28,805.7324583333334,0.0,805.7324583333334
25,2006-12-29,822.4627083333334,0.0,822.4627083333334
25,2006-12-30,798.8165416666667,0.0,798.8165416666667
25,2006-12-31,777.9635,0.0,777.9635
25,2007-01-01,792.1718333333333,0.0,792.1718333333333
25,2007-01-02,814.0805833333334,0.0,814.0805833333334
25,2007-01-03,819.2627916666667,0.0,819.2627916666667
25,2007-01-04,796.3226666666666,0.0,796.3226666666666
25,2007-01-05,591.1017499999999,0.0,591.1017499999999
25,2007-01-06,756.6985,0.0,756.6985
25,2007-01-07,773.5659999999999,0.0,773.5659999999999
25,2007-01-08,818.1855,0.0,818.1855
25,2007-01-09,828.4258333333333,0.0,828.4258333333333
25,2007-01-10,833.818375,0.0,833.818375
25,2007-01-11,683.1483333333334,0.0,683.1483333333334
25,2007-01-12,788.8028333333333,0.0,788.8028333333333
25,2007-01-13,682.0690416666666,0.0,682.0690416666666
25,2007-01-14,807.0110833333333,0.0,807.0110833333333
25,2007-01-15,845.924875,0.0,845.924875
25,2007-01-16,847.59375,0.0,847.59375
25,2007-01-17,864.0806666666667,0.0,864.0806666666667
25,2007-01-18,866.5589166666667,0.0,866.5589166666667
25,2007-01-19,849.7564583333333,0.0,849.7564583333333
25,2007-01-20,827.955375,0.0,827.955375
25,2007-01-21,796.7614583333334,0.0,796.7614583333334
25,2007-01-22,850.5475,0.0,850.5475
25,2007-01-23,875.6363333333334,0.0,875.6363333333334
25,2007-01-24,857.2425416666666,0.0,857.2425416666666
25,2007-01-25,868.8951666666667,0.0,868.8951666666667
25,2007-01-26,186.60791666666668,0.0,186.60791666666668
25,2007-01-27,0.0,0.0,0.0
25,2007-01-28,0.0,0.0,0.0
25,2007-01-29,0.0,0.0,0.0
25,2007-01-30,871.5022916666667,0.0,871.5022916666667
25,2007-01-31,870.375625,0.0,870.375625
25,2007-02-01,869.0534166666666,0.0,869.0534166666666
25,2007-02-02,880.792375,0.0,880.792375
25,2007-02-03,581.0712916666666,0.0,581.0712916666666
25,2007-02-04,601.5462916666667,0.0,601.5462916666667
25,2007-02-05,870.2404583333333,0.0,870.2404583333333
25,2007-02-06,911.9589583333333,0.0,911.9589583333333
25,2007-02-07,988.7895416666667,0.0,988.7895416666667
25,2007-02-08,962.9891666666667,0.0,962.9891666666667
25,2007-02-09,917.5677916666667,0.0,917.5677916666667
25,2007-02-10,944.170375,0.0,944.170375
25,2007-02-11,914.4610833333332,0.0,914.4610833333332
25,2007-02-12,907.2071666666667,0.0,907.2071666666667
25,2007-02-13,868.7495,0.0,868.7495
25,2007-02-14,918.0029166666667,0.0,918.0029166666667
25,2007-02-15,931.0642083333333,0.0,931.0642083333333
25,2007-02-16,914.5981666666667,0.0,914.5981666666667
25,2007-02-17,941.718125,0.0,941.718125
25,2007-02-18,945.8179583333334,0.0,945.8179583333334
25,2007-02-19,970.3989166666667,0.0,970.3989166666667
25,2007-02-20,881.3500833333333,0.0,881.3500833333333
25,2007-02-21,973.9586250000001,0.0,973.9586250000001
25,2007-02-22,962.4566249999999,0.0,962.4566249999999
25,2007-02-23,939.8584166666666,0.0,939.8584166666666
25,2007-02-24,927.9422083333334,0.0,927.9422083333334
25,2007-02-25,802.0767500000001,0.0,802.0767500000001
25,2007-02-26,858.903375,0.0,858.903375
25,2007-02-27,902.5948749999999,0.0,902.5948749999999
25,2007-02-28,909.90775,0.0,909.90775
25,2007-03-01,897.312125,0.0,897.312125
25,2007-03-02,976.3528333333334,0.0,976.3528333333334
25,2007-03-03,952.3726666666666,0.0,952.3726666666666
25,2007-03-04,915.0844166666667,0.0,915.0844166666667
25,2007-03-05,926.086625,0.0,926.086625
25,2007-03-06,987.1049583333333,0.0,987.1049583333333
25,2007-03-07,1003.6382916666666,0.0,1003.6382916666666
25,2007-03-08,951.7214583333333,0.0,951.7214583333333
25,2007-03-09,985.9289166666667,0.0,985.9289166666667
25,2007-03-10,825.2539166666667,0.0,825.2539166666667
25,2007-03-11,949.9780000000001,0.0,949.9780000000001
25,2007-03-12,945.5945416666667,0.0,945.5945416666667
25,2007-03-13,933.9282083333333,0.0,933.9282083333333
25,2007-03-14,918.9697916666668,0.0,918.9697916666668
25,2007-03-15,906.9855833333332,0.0,906.9855833333332
25,2007-03-16,929.9687083333333,0.0,929.9687083333333
25,2007-03-17,885.135625,0.0,885.135625
25,2007-03-18,885.6855,0.0,885.6855
25,2007-03-19,940.8255833333333,0.0,940.8255833333333
25,2007-03-20,914.1159583333333,0.0,914.1159583333333
25,2007-03-21,917.7685,0.0,917.7685
25,2007-03-22,917.99725,0.0,917.99725
25,2007-03-23,912.3205833333333,0.0,912.3205833333333
25,2007-03-24,744.3942083333333,0.0,744.3942083333333
25,2007-03-25,896.497125,0.0,896.497125
25,2007-03-26,869.6615416666667,0.0,869.6615416666667
25,2007-03-27,854.3381666666668,0.0,854.3381666666668
25,2007-03-28,890.1369166666667,0.0,890.1369166666667
25,2007-03-29,914.8837916666666,0.0,914.8837916666666
25,2007-03-30,913.042875,0.0,913.042875
25,2007-03-31,893.5710416666667,0.0,893.5710416666667
25,2007-04-01,902.4752916666666,0.0,902.4752916666666
25,2007-04-02,877.6710833333333,0.0,877.6710833333333
25,2007-04-03,919.2807916666667,0.0,919.2807916666667
25,2007-04-04,932.020625,0.0,932.020625
25,2007-04-05,913.9085833333334,0.0,913.9085833333334
25,2007-04-06,886.8824166666667,0.0,886.8824166666667
25,2007-04-07,861.4229583333334,0.0,861.4229583333334
25,2007-04-08,880.8804583333334,0.0,880.8804583333334
25,2007-04-09,904.3392083333333,0.0,904.3392083333333
25,2007-04-10,846.1507916666666,0.0,846.1507916666666
25,2007-04-11,878.2629166666667,0.0,878.2629166666667
25,2007-04-12,885.1023749999999,0.0,885.1023749999999
25,2007-04-13,857.70975,0.0,857.70975
25,2007-04-14,770.8982916666668,0.0,770.8982916666668
25,2007-04-15,847.4194583333333,0.0,847.4194583333333
25,2007-04-16,866.8381666666668,0.0,866.8381666666668
25,2007-04-17,862.9285833333333,0.0,862.9285833333333
25,2007-04-18,858.8728333333333,0.0,858.8728333333333
25,2007-04-19,879.6632083333334,0.0,879.6632083333334
25,2007-04-20,906.075375,0.0,906.075375
25,2007-04-21,916.2790416666667,0.0,916.2790416666667
25,2007-04-22,926.7601249999999,0.0,926.7601249999999
25,2007-04-23,1077.1560416666666,0.0,1077.1560416666666
25,2007-04-24,856.7562083333333,0.0,856.7562083333333
25,2007-04-25,847.321875,0.0,847.321875
25,2007-04-26,814.92875,0.0,814.92875
25,2007-04-27,871.7694583333333,0.0,871.7694583333333
25,2007-04-28,752.1274583333334,0.0,752.1274583333334
25,2007-04-29,865.6519166666667,0.0,865.6519166666667
25,2007-04-30,793.0465833333333,0.0,793.0465833333333
25,2007-05-01,808.2717916666667,0.0,808.2717916666667
25,2007-05-02,866.0326249999999,0.0,866.0326249999999
25,2007-05-03,841.1799583333333,0.0,841.1799583333333
25,2007-05-04,865.9438749999999,0.0,865.9438749999999
25,2007-05-05,805.8037916666667,0.0,805.8037916666667
25,2007-05-06,820.930125,0.0,820.930125
25,2007-05-07,946.5885,0.0,946.5885
25,2007-05-08,1030.4290416666665,0.0,1030.4290416666665
25,2007-05-09,1059.84475,0.0,1059.84475
25,2007-05-10,998.06325,0.0,998.06325
25,2007-05-11,1058.5691666666667,0.0,1058.5691666666667
25,2007-05-12,715.6694166666666,0.0,715.6694166666666
25,2007-05-13,799.8436666666666,0.0,799.8436666666666
25,2007-05-14,1008.386125,0.0,1008.386125
25,2007-05-15,1047.8909583333334,0.0,1047.8909583333334
25,2007-05-16,868.8291250000001,0.0,868.8291250000001
25,2007-05-17,844.3830416666666,0.0,844.3830416666666
25,2007-05-18,813.4375416666667,0.0,813.4375416666667
25,2007-05-19,933.3303333333333,0.0,933.3303333333333
25,2007-05-20,764.4812916666666,0.0,764.4812916666666
25,2007-05-21,805.5347916666666,0.0,805.5347916666666
25,2007-05-22,968.6507916666666,0.0,968.6507916666666
25,2007-05-23,233.022125,0.0,233.022125
25,2007-05-24,0.0,0.0,0.0
25,2007-05-25,0.0,0.0,0.0
25,2007-05-26,0.0,0.0,0.0
25,2007-05-27,0.0,0.0,0.0
25,2007-05-28,0.0,0.0,0.0
25,2007-05-29,0.0,0.0,0.0
25,2007-05-30,0.0,0.0,0.0
25,2007-05-31,0.0,0.0,0.0
25,2007-06-01,0.0,0.0,0.0
25,2007-06-02,0.0,0.0,0.0
25,2007-06-03,0.0,0.0,0.0
25,2007-06-04,0.0,0.0,0.0
25,2007-06-05,0.0,0.0,0.0
25,2007-06-06,0.0,0.0,0.0
25,2007-06-07,0.0,0.0,0.0
25,2007-06-08,0.0,0.0,0.0
25,2007-06-09,0.0,0.0,0.0
25,2007-06-10,0.0,0.0,0.0
25,2007-06-11,0.0,0.0,0.0
25,2007-06-12,0.0,0.0,0.0
25,2007-06-13,0.0,0.0,0.0
25,2007-06-14,0.0,0.0,0.0
25,2007-06-15,0.0,0.0,0.0
25,2007-06-16,0.0,0.0,0.0
25,2007-06-17,0.0,0.0,0.0
25,2007-06-18,0.0,0.0,0.0
25,2007-06-19,0.0,0.0,0.0
25,2007-06-20,0.0,0.0,0.0
25,2007-06-21,0.0,0.0,0.0
25,2007-06-22,0.0,0.0,0.0
25,2007-06-23,0.0,0.0,0.0
25,2007-06-24,0.0,0.0,0.0
25,2007-06-25,0.0,0.0,0.0
25,2007-06-26,0.0,0.0,0.0
25,2007-06-27,0.0,0.0,0.0
25,2007-06-28,0.0,0.0,0.0
25,2007-06-29,0.0,0.0,0.0
25,2007-06-30,0.0,0.0,0.0
25,2007-07-01,0.0,0.0,0.0
25,2007-07-02,0.0,0.0,0.0
25,2007-07-03,0.0,0.0,0.0
25,2007-07-04,0.0,0.0,0.0
25,2007-07-05,0.0,0.0,0.0
25,2007-07-06,0.0,0.0,0.0
25,2007-07-07,0.0,0.0,0.0
25,2007-07-08,0.0,0.0,0.0
25,2007-07-09,0.0,0.0,0.0
25,2007-07-10,0.0,0.0,0.0
25,2007-07-11,0.0,0.0,0.0
25,2007-07-12,51.446374999999996,0.0,51.446374999999996
25,2007-07-13,1247.9572083333335,0.0,1247.9572083333335
25,2007-07-14,1158.3219166666665,0.0,1158.3219166666665
25,2007-07-15,1237.45825,0.0,1237.45825
25,2007-07-16,1204.2730833333333,0.0,1204.2730833333333
25,2007-07-17,1286.8112083333333,0.0,1286.8112083333333
25,2007-07-18,1290.1040833333334,0.0,1290.1040833333334
25,2007-07-19,1277.9445,0.0,1277.9445
25,2007-07-20,1186.223,0.0,1186.223
25,2007-07-21,1072.279125,0.0,1072.279125
25,2007-07-22,1072.1066250000001,0.0,1072.1066250000001
25,2007-07-23,1145.016375,0.0,1145.016375
25,2007-07-24,1161.72825,0.0,1161.72825
25,2007-07-25,1211.0478333333333,0.0,1211.0478333333333
25,2007-07-26,1202.3605416666667,0.0,1202.3605416666667
25,2007-07-27,1142.6388333333332,0.0,1142.6388333333332
25,2007-07-28,605.4440000000001,0.0,605.4440000000001
25,2007-07-29,607.7502916666666,0.0,607.7502916666666
25,2007-07-30,624.8306249999999,0.0,624.8306249999999
25,2007-07-31,228.19129166666667,0.0,228.19129166666667
25,2007-08-01,715.9505416666666,0.0,715.9505416666666
25,2007-08-02,587.81125,0.0,587.81125
25,2007-08-03,573.0303333333333,0.0,573.0303333333333
25,2007-08-04,450.530375,0.0,450.530375
25,2007-08-05,415.47770833333334,0.0,415.47770833333334
25,2007-08-06,469.4738333333333,0.0,469.4738333333333
25,2007-08-07,450.1415833333333,0.0,450.1415833333333
25,2007-08-08,544.8752916666666,0.0,544.8752916666666
25,2007-08-09,576.1281666666666,0.0,576.1281666666666
25,2007-08-10,566.5520833333334,0.0,566.5520833333334
25,2007-08-11,565.8784583333334,0.0,565.8784583333334
25,2007-08-12,576.1271666666667,0.0,576.1271666666667
25,2007-08-13,591.8602916666667,0.0,591.8602916666667
25,2007-08-14,503.25425,0.0,503.25425
25,2007-08-15,543.9052916666667,0.0,543.9052916666667
25,2007-08-16,531.4199166666666,0.0,531.4199166666666
25,2007-08-17,474.16895833333336,0.0,474.16895833333336
25,2007-08-18,344.9376666666667,0.0,344.9376666666667
25,2007-08-19,386.74583333333334,0.0,386.74583333333334
25,2007-08-20,225.99054166666667,0.0,225.99054166666667
25,2007-08-21,346.2575,0.0,346.2575
25,2007-08-22,461.8799166666667,0.0,461.8799166666667
25,2007-08-23,553.2902916666667,0.0,553.2902916666667
25,2007-08-24,569.3104166666667,0.0,569.3104166666667
25,2007-08-25,469.0406666666667,0.0,469.0406666666667
25,2007-08-26,558.4272083333334,0.0,558.4272083333334
25,2007-08-27,540.4837083333333,0.0,540.4837083333333
25,2007-08-28,563.0294583333333,0.0,563.0294583333333
25,2007-08-29,565.6957916666667,0.0,565.6957916666667
25,2007-08-30,547.648,0.0,547.648
25,2007-08-31,4.621791666666667,0.0,4.621791666666667
25,2007-09-01,467.5941666666667,0.0,467.5941666666667
25,2007-09-02,384.34058333333337,0.0,384.34058333333337
25,2007-09-03,458.21120833333333,0.0,458.21120833333333
25,2007-09-04,427.383125,0.0,427.383125
25,2007-09-05,489.9399166666667,0.0,489.9399166666667
25,2007-09-06,533.2332083333333,0.0,533.2332083333333
25,2007-09-07,579.5106666666667,0.0,579.5106666666667
25,2007-09-08,498.2873333333334,0.0,498.2873333333334
25,2007-09-09,519.5790000000001,0.0,519.5790000000001
25,2007-09-10,499.80558333333335,0.0,499.80558333333335
25,2007-09-11,440.272,0.0,440.272
25,2007-09-12,161.71170833333335,0.0,161.71170833333335
25,2007-09-13,302.12783333333334,0.0,302.12783333333334
25,2007-09-14,437.3379166666667,0.0,437.3379166666667
25,2007-09-15,151.884875,0.0,151.884875
25,2007-09-16,149.51591666666667,0.0,149.51591666666667
25,2007-09-17,316.68925,0.0,316.68925
25,2007-09-18,374.16970833333335,0.0,374.16970833333335
25,2007-09-19,413.8595,0.0,413.8595
25,2007-09-20,435.1503333333333,0.0,435.1503333333333
25,2007-09-21,413.2540833333333,0.0,413.2540833333333
25,2007-09-22,474.7441666666667,0.0,474.7441666666667
25,2007-09-23,330.1814583333333,0.0,330.1814583333333
25,2007-09-24,368.4875833333333,0.0,368.4875833333333
25,2007-09-25,406.924375,0.0,406.924375
25,2007-09-26,561.84525,0.0,561.84525
25,2007-09-27,437.96108333333336,0.0,437.96108333333336
25,2007-09-28,233.32741666666666,0.0,233.32741666666666
25,2007-09-29,284.5408333333333,0.0,284.5408333333333
25,2007-09-30,331.756125,0.0,331.756125
25,2007-10-01,297.0321666666667,0.0,297.0321666666667
25,2007-10-02,347.9825,0.0,347.9825
25,2007-10-03,382.2981666666667,0.0,382.2981666666667
25,2007-10-04,761.0631666666667,0.0,761.0631666666667
25,2007-10-05,864.5203750000001,0.0,864.5203750000001
25,2007-10-06,263.1390416666667,0.0,263.1390416666667
25,2007-10-07,189.24741666666668,0.0,189.24741666666668
25,2007-10-08,51.3485,0.0,51.3485
25,2007-10-09,319.1123333333333,0.0,319.1123333333333
25,2007-10-10,271.65637499999997,0.0,271.65637499999997
25,2007-10-11,181.238375,0.0,181.238375
25,2007-10-12,174.947125,0.0,174.947125
25,2007-10-13,172.17908333333332,0.0,172.17908333333332
25,2007-10-14,175.87725,0.0,175.87725
25,2007-10-15,189.52112499999998,0.0,189.52112499999998
25,2007-10-16,189.06879166666667,0.0,189.06879166666667
25,2007-10-17,317.8564166666667,0.0,317.8564166666667
25,2007-10-18,30.652916666666666,0.0,30.652916666666666
25,2007-10-19,9.692083333333334,0.0,9.692083333333334
25,2007-10-20,0.0,0.0,0.0
25,2007-10-21,0.0,0.0,0.0
25,2007-10-22,0.0,0.0,0.0
25,2007-10-23,0.0,0.0,0.0
25,2007-10-24,0.0,0.0,0.0
25,2007-10-25,0.0,0.0,0.0
25,2007-10-26,0.0,0.0,0.0
25,2007-10-27,0.0,0.0,0.0
25,2007-10-28,0.0,0.0,0.0
25,2007-10-29,0.0,0.0,0.0
25,2007-10-30,0.0,0.0,0.0
25,2007-10-31,0.0,0.0,0.0
25,2007-11-01,0.0,0.0,0.0
25,2007-11-02,0.0,0.0,0.0
25,2007-11-03,0.0,0.0,0.0
25,2007-11-04,0.0,0.0,0.0
25,2007-11-05,0.0,0.0,0.0
25,2007-11-06,0.0,0.0,0.0
25,2007-11-07,0.0,0.0,0.0
25,2007-11-08,0.0,0.0,0.0
25,2007-11-09,0.0,0.0,0.0
25,2007-11-10,0.0,0.0,0.0
25,2007-11-11,0.0,0.0,0.0
25,2007-11-12,0.0,0.0,0.0
25,2007-11-13,0.0,0.0,0.0
25,2007-11-14,0.0,0.0,0.0
25,2007-11-15,0.0,0.0,0.0
25,2007-11-16,0.0,0.0,0.0
25,2007-11-17,0.0,0.0,0.0
25,2007-11-18,0.0,0.0,0.0
25,2007-11-19,0.0,0.0,0.0
25,2007-11-20,97.07579166666666,0.0,97.07579166666666
25,2007-11-21,202.106125,0.0,202.106125
25,2007-11-22,174.83870833333333,0.0,174.83870833333333
25,2007-11-23,162.44158333333334,0.0,162.44158333333334
25,2007-11-24,191.81091666666669,0.0,191.81091666666669
25,2007-11-25,200.94408333333334,0.0,200.94408333333334
25,2007-11-26,150.78437499999998,0.0,150.78437499999998
25,2007-11-27,198.53695833333333,0.0,198.53695833333333
25,2007-11-28,187.03183333333334,0.0,187.03183333333334
25,2007-11-29,203.80120833333334,0.0,203.80120833333334
25,2007-11-30,192.55666666666664,0.0,192.55666666666664
25,2007-12-01,176.49225,0.0,176.49225
25,2007-12-02,191.59895833333334,0.0,191.59895833333334
25,2007-12-03,181.41616666666667,0.0,181.41616666666667
25,2007-12-04,178.76558333333332,0.0,178.76558333333332
25,2007-12-05,193.92362500000002,0.0,193.92362500000002
25,2007-12-06,201.74866666666665,0.0,201.74866666666665
25,2007-12-07,196.25958333333332,0.0,196.25958333333332
25,2007-12-08,167.39029166666668,0.0,167.39029166666668